FW1490 Weather Reports


time (UTC)temp
F
wind
direction
speed
knots
gust
knots
rain 1hr
in
rain 24hr
in
rain mn
in
humidity
%
barometer
mb
20260507154540 57 250 13.0 20.0 0.00 0.15 0.00 60 1015.0
20260507153035 55 271 13.0 18.2 0.00 0.15 0.00 66 1015.2
20260507151529 54 254 13.0 19.1 0.00 0.15 0.00 69 1015.4
20260507150025 52 252 13.9 20.0 0.00 0.15 0.00 70 1015.5
20260507144521 50 252 12.2 20.0 0.00 0.18 0.00 73 1015.5
20260507143018 49 252 12.2 20.9 0.00 0.18 0.00 75 1015.7
20260507141509 48 268 11.3 21.7 0.00 0.18 0.00 77 1015.6
20260507140009 46 225 13.9 20.9 0.00 0.18 0.00 79 1015.9
20260507134501 44 263 11.3 16.5 0.00 0.20 0.00 83 1016.1
20260507133104 42 250 11.3 18.2 0.00 0.20 0.00 84 1016.0
20260507131615 40 246 13.0 18.2 0.00 0.20 0.00 86 1016.1
20260507130047 38 251 10.4 14.8 0.00 0.20 0.00 87 1016.0
20260507124551 37 258 11.3 16.5 0.00 0.22 0.00 89 1016.1
20260507123044 35 228 5.2 10.4 0.00 0.22 0.00 89 1016.1
20260507121508 35 244 5.2 7.8 0.00 0.22 0.00 89 1016.2
20260507120006 35 222 4.3 8.7 0.00 0.22 0.00 89 1016.4
20260507114501 35 209 6.1 10.4 0.00 0.24 0.00 90 1016.5
20260507113134 34 254 7.0 10.4 0.00 0.24 0.00 90 1016.6
20260507111558 34 239 7.8 12.2 0.00 0.24 0.00 90 1016.8
20260507110058 34 246 6.1 12.2 0.00 0.24 0.00 90 1016.8
20260507104525 34 237 7.0 10.4 0.00 0.28 0.00 90 1017.0
20260507103022 33 267 7.0 9.6 0.00 0.28 0.00 90 1017.0
20260507101554 33 234 6.1 9.6 0.00 0.28 0.00 90 1017.2
20260507100056 34 215 3.5 7.8 0.00 0.28 0.00 90 1017.4
20260507094518 34 226 4.3 9.6 0.00 0.28 0.00 90 1017.5
20260507093015 34 248 6.1 12.2 0.00 0.28 0.00 90 1017.6
20260507091510 35 236 7.8 12.2 0.00 0.28 0.00 91 1017.9
20260507090007 34 244 7.0 12.2 0.00 0.28 0.00 91 1018.0
20260507084509 33 248 5.2 10.4 0.00 0.30 0.00 91 1017.9
20260507083007 33 238 5.2 9.6 0.00 0.30 0.00 91 1018.3
20260507081558 33 240 4.3 7.8 0.00 0.30 0.00 91 1018.5
20260507080056 33 245 4.3 7.8 0.00 0.30 0.00 91 1018.7
20260507074554 33 254 4.3 8.7 0.00 0.31 0.00 91 1018.9
20260507073057 33 221 2.6 7.0 0.00 0.31 0.00 90 1019.0
20260507071548 34 248 2.6 8.7 0.00 0.31 0.00 91 1019.1
20260507070057 34 256 3.5 8.7 0.00 0.31 0.00 91 1019.3
20260507064546 34 227 4.3 7.8 0.00 0.32 0.00 90 1019.4
20260507063040 34 229 2.6 7.8 0.00 0.32 0.00 90 1019.6
20260507061538 35 216 2.6 7.0 0.00 0.32 0.00 90 1019.8
20260507060037 35 228 2.6 6.1 0.00 0.32 0.00 90 1019.9
20260507054538 35 243 2.6 8.7 0.00 0.33 0.00 90 1019.9
20260507053029 35 224 2.6 6.1 0.00 0.33 0.00 90 1020.1
20260507051627 35 222 0.9 6.1 0.00 0.33 0.00 90 1020.1
20260507050106 35 196 2.6 6.1 0.00 0.33 0.00 90 1020.1
20260507044556 35 198 2.6 5.2 0.00 0.38 0.33 90 1020.2
20260507043050 36 229 2.6 7.0 0.00 0.38 0.33 90 1020.4
20260507041549 36 205 1.7 6.1 0.00 0.38 0.33 90 1020.5
20260507040050 36 202 1.7 6.1 0.00 0.38 0.33 90 1020.5
20260507034548 36 257 3.5 7.0 0.00 0.49 0.33 90 1020.4
20260507033047 36 198 3.5 6.1 0.00 0.49 0.33 89 1020.3
20260507031543 37 209 3.5 6.1 0.00 0.49 0.33 89 1020.3
20260507030045 37 210 2.6 5.2 0.00 0.49 0.33 89 1020.0
20260507024546 37 219 0.9 6.1 0.00 0.51 0.33 88 1020.0
20260507023039 38 216 2.6 5.2 0.00 0.51 0.33 88 1019.7
20260507021550 39 229 3.5 7.8 0.00 0.51 0.33 87 1019.6
20260507020037 40 243 2.6 7.0 0.00 0.51 0.33 86 1019.5
20260507014536 41 243 4.3 7.0 0.00 0.51 0.33 86 1019.5
20260507013037 42 244 3.5 7.8 0.00 0.51 0.33 85 1019.4
20260507011537 43 261 4.3 8.7 0.00 0.51 0.33 84 1019.3
20260507010041 43 232 7.0 10.4 0.00 0.51 0.33 84 1019.2
20260507004532 43 223 5.2 10.4 0.00 0.51 0.33 85 1019.1
20260507003029 43 249 7.0 9.6 0.00 0.51 0.33 84 1019.3
20260507001533 43 225 4.3 8.7 0.00 0.51 0.33 84 1019.3
20260507000032 43 254 5.2 9.6 0.00 0.51 0.33 86 1019.4
20260506234526 43 246 6.1 10.4 0.01 0.51 0.33 86 1019.4
20260506233056 42 269 4.3 11.3 0.02 0.51 0.33 86 1020.0
20260506231556 42 273 5.2 8.7 0.02 0.51 0.33 86 1019.7
20260506230052 42 269 5.2 7.8 0.02 0.51 0.33 86 1019.6
20260506224551 42 263 2.6 7.8 0.01 0.55 0.32 86 1019.6
20260506223057 43 263 4.3 7.8 0.00 0.54 0.31 85 1019.7
20260506221554 42 248 1.7 6.1 0.00 0.54 0.31 84 1019.6
20260506220048 43 251 1.7 4.3 0.00 0.54 0.31 85 1019.5
20260506214547 43 245 0.9 4.3 0.01 0.57 0.31 85 1019.6
20260506213045 43 240 0.9 2.6 0.02 0.57 0.31 85 1019.6
20260506211544 42 218 0.9 2.6 0.02 0.57 0.31 85 1019.6
20260506210043 42 198 0.9 5.2 0.01 0.56 0.30 85 1019.6
20260506204552 42 202 1.7 4.3 0.01 0.56 0.30 85 1019.7
20260506203041 42 154 0.9 5.2 0.00 0.56 0.28 86 1019.8
20260506201541 42 128 0.9 3.5 0.00 0.56 0.28 87 1019.7
20260506200037 42 110 1.7 6.1 0.00 0.56 0.28 87 1019.7
20260506194542 42 130 2.6 7.0 0.00 0.56 0.28 87 1019.7
20260506193034 42 130 2.6 7.0 0.00 0.56 0.28 89 1019.7
20260506191532 42 89 2.6 7.0 0.00 0.56 0.28 90 1019.7
20260506190027 41 121 1.7 5.2 0.00 0.56 0.28 91 1019.9
20260506184526 40 82 2.6 6.1 0.00 0.56 0.28 91 1020.0
20260506183023 40 113 1.7 6.1 0.00 0.56 0.28 92 1020.2
20260506181526 39 148 0.0 3.5 0.01 0.56 0.28 92 1020.4
20260506180053 39 106 3.5 6.1 0.01 0.56 0.28 92 1020.4
20260506174552 38 109 0.9 5.2 0.01 0.56 0.28 92 1020.4
20260506173021 37 69 1.7 4.3 0.02 0.56 0.28 93 1020.5
20260506171532 36 103 1.7 5.2 0.02 0.55 0.28 93 1020.5
20260506170014 36 92 1.7 5.2 0.04 0.55 0.28 92 1020.3
20260506164517 35 92 1.7 5.2 0.06 0.55 0.28 92 1020.3
20260506163011 34 66 1.7 4.3 0.06 0.54 0.27 92 1020.2
20260506161509 33 76 2.6 4.3 0.06 0.53 0.26 92 1019.8
20260506160005 33 38 2.6 4.3 0.06 0.51 0.24 92 1019.8